Home > Weather > Nouakchott > Past weeks

Flag for Mauritania Weather for the Past 2 Weeks in Nouakchott, Mauritania

Now
64 °F

Scattered clouds.


Feels Like: 64 °F
Forecast: 66 / 77 °F
Wind: 7 mph from North

Location: Nouakchott Airport

Current Time: Apr 29, 2016 at 8:30:05 AM

Latest Report: Apr 29, 2016 at 7:30 AM


Visibility: 4 mi

Pressure: 29.83 "Hg

Humidity: 88%

Dew Point: 61 °F

Location of NouakchottLocation

Historic Weather in Nouakchott — Graph

°F

Nouakchott Temperature Yesterday

Maximum temperature yesterday: 75 °F (at 12:00 PM)
Minimum temperature yesterday: 64 °F (at 2:00 AM)
Average temperature yesterday: 68 °F

High & Low Weather Summary for the Past Weeks

 TemperatureHumidityPressure
High109 °F (Apr 14, 3:00 PM)88% (Apr 27, 7:30 AM)29.95 "Hg (Apr 27, 7:30 AM)
Low64 °F (Apr 28, 2:00 AM)8% (Apr 14, 3:00 PM)29.68 "Hg (Apr 23, 5:00 PM)
Average82 °F45%29.83 "Hg
* Reported Apr 14 7:00 AM — Apr 29 7:00 AM, Nouakchott, Weather by CustomWeather, © 2016

Note: Actual official high and low records may vary slightly from our data, if they occured in-between our weather recording intervals... More about our weather records

Advertising

Nouakchott Weather History for the Previous 24 Hours

Scroll right to see more
 ConditionsComfort  
Time TempWeatherWind HumidityBarometerVisibility
7:00 AM
Fri, Apr 29
64 °FScattered clouds.9 mph88%29.83 "Hg4 mi
6:30 AM64 °FPassing clouds.7 mph88%29.83 "Hg4 mi
6:00 AM64 °FPassing clouds.8 mph88%29.83 "Hg4 mi
5:30 AM64 °FPassing clouds.8 mph88%29.83 "Hg5 mi
5:00 AM64 °FPassing clouds.7 mph88%29.83 "Hg5 mi
4:30 AM64 °FPassing clouds.9 mph88%29.80 "Hg5 mi
4:00 AM64 °FPassing clouds.9 mph88%29.80 "Hg5 mi
3:30 AM64 °FPassing clouds.9 mph88%29.80 "Hg5 mi
2:30 AM64 °FPassing clouds.9 mph88%29.83 "Hg5 mi
2:00 AM64 °FPassing clouds.9 mph88%29.83 "Hg5 mi
1:00 AM64 °FPassing clouds.9 mph88%29.83 "Hg5 mi
12:30 AM64 °FPassing clouds.10 mph88%29.86 "Hg5 mi
12:00 AM64 °FClear.13 mph88%29.86 "Hg5 mi
11:30 PM
Thu, Apr 28
66 °FClear.13 mph83%29.86 "Hg5 mi
11:00 PM66 °FClear.10 mph83%29.86 "Hg5 mi
10:30 PM66 °FClear.10 mph83%29.86 "Hg5 mi
10:00 PM66 °FClear.12 mph83%29.86 "Hg5 mi
9:30 PM66 °FClear.12 mph78%29.86 "Hg4 mi
9:00 PM66 °FClear.10 mph78%29.83 "Hg4 mi
8:30 PM66 °FClear.10 mph78%29.83 "Hg4 mi
8:00 PM66 °FClear.12 mph78%29.83 "Hg4 mi
7:30 PM66 °FClear.14 mph78%29.83 "Hg4 mi
7:00 PM66 °FClear.18 mph78%29.80 "Hg4 mi
6:30 PM68 °FClear.13 mph73%29.80 "Hg4 mi
6:00 PM68 °FClear.15 mph78%29.80 "Hg4 mi
5:30 PM70 °FClear.15 mph73%29.80 "Hg4 mi
5:00 PM72 °FClear.15 mph69%29.80 "Hg4 mi
4:30 PM73 °FClear.13 mph65%29.80 "Hg4 mi
4:00 PM73 °FClear.14 mph65%29.80 "Hg4 mi
1:00 PM75 °FClear.12 mph61%29.83 "Hg4 mi
12:30 PM75 °FClear.12 mph65%29.83 "Hg4 mi
12:00 PM75 °FClear.10 mph61%29.86 "Hg4 mi
11:30 AM73 °FClear.12 mph65%29.86 "Hg4 mi
11:00 AM73 °FClear.14 mph69%29.89 "Hg4 mi
10:30 AM72 °FClear.13 mph73%29.86 "Hg4 mi
10:00 AM72 °FClear.10 mph73%29.86 "Hg4 mi
9:30 AM72 °FClear.9 mph73%29.86 "Hg4 mi
9:00 AM70 °FClear.12 mph78%29.86 "Hg4 mi
8:00 AM66 °FClear.9 mph88%29.86 "Hg4 mi
Weather by CustomWeather, © 2016

See weather overviewHow to use our weather pages